Year,Month,Day,Hour,Minute,Value (Times are PST for temperature in C)
2015,01,26,06,15,6.20
2015,01,26,06,16,6.10
2015,01,26,06,17,6.10
2015,01,26,06,18,6.10
2015,01,26,06,19,6.10
2015,01,26,06,20,6.10
2015,01,26,06,21,6.10
2015,01,26,06,22,6.10
2015,01,26,06,23,6.10
2015,01,26,06,24,6.10
2015,01,26,06,25,6.10
2015,01,26,06,26,6.10
2015,01,26,06,27,6.10
2015,01,26,06,28,6.10
2015,01,26,06,29,6.00
2015,01,26,06,30,5.90
2015,01,26,06,31,5.80
2015,01,26,06,32,5.80
2015,01,26,06,33,5.70
2015,01,26,06,34,5.70
2015,01,26,06,35,5.70
2015,01,26,06,36,5.70
2015,01,26,06,37,5.70
2015,01,26,06,38,5.70
2015,01,26,06,39,5.70
2015,01,26,06,40,5.70
2015,01,26,06,41,5.70
2015,01,26,06,42,5.70
2015,01,26,06,43,5.70
2015,01,26,06,44,5.70
2015,01,26,06,45,5.70
2015,01,26,06,46,5.70
2015,01,26,06,47,5.70
2015,01,26,06,48,5.70
2015,01,26,06,49,5.70
2015,01,26,06,50,5.80
2015,01,26,06,51,5.80
2015,01,26,06,52,5.80
2015,01,26,06,53,5.90
2015,01,26,06,54,5.90
2015,01,26,06,55,5.90
2015,01,26,06,56,5.80
2015,01,26,06,57,5.80
2015,01,26,06,58,5.70
2015,01,26,06,59,5.70
2015,01,26,07,00,5.70
2015,01,26,07,01,5.70
2015,01,26,07,02,5.70
2015,01,26,07,03,5.70
2015,01,26,07,04,5.70
2015,01,26,07,05,5.60
2015,01,26,07,06,5.60
2015,01,26,07,07,5.50
2015,01,26,07,08,5.40
2015,01,26,07,09,5.30
2015,01,26,07,10,5.30
2015,01,26,07,11,5.30
2015,01,26,07,12,5.20
2015,01,26,07,13,5.20
2015,01,26,07,14,5.20
2015,01,26,07,15,5.20
2015,01,26,07,16,5.20
2015,01,26,07,17,5.10
2015,01,26,07,18,5.10
2015,01,26,07,19,5.10
2015,01,26,07,20,4.90
2015,01,26,07,21,4.80
2015,01,26,07,22,4.70
2015,01,26,07,23,4.60
2015,01,26,07,24,4.70
2015,01,26,07,25,4.80
2015,01,26,07,26,4.80
2015,01,26,07,27,4.90
2015,01,26,07,28,4.90
2015,01,26,07,29,4.90
2015,01,26,07,30,4.90
2015,01,26,07,31,4.90
2015,01,26,07,32,4.90
2015,01,26,07,33,4.90
2015,01,26,07,34,4.90
2015,01,26,07,35,4.90
2015,01,26,07,36,5.00
2015,01,26,07,37,5.10
2015,01,26,07,38,5.10
2015,01,26,07,39,5.10
2015,01,26,07,40,5.10
2015,01,26,07,41,5.10
2015,01,26,07,42,5.10
2015,01,26,07,43,5.10
2015,01,26,07,44,5.00
2015,01,26,07,45,4.90
2015,01,26,07,46,4.90
2015,01,26,07,47,4.90
2015,01,26,07,48,4.90
2015,01,26,07,49,5.00
2015,01,26,07,50,5.10
2015,01,26,07,51,5.10
2015,01,26,07,52,5.10
2015,01,26,07,53,5.20
2015,01,26,07,54,5.20
2015,01,26,07,55,5.30
2015,01,26,07,56,5.30
2015,01,26,07,57,5.40
2015,01,26,07,58,5.50
2015,01,26,07,59,5.60
2015,01,26,08,00,5.70
2015,01,26,08,01,5.80
2015,01,26,08,02,5.90
2015,01,26,08,03,6.10
2015,01,26,08,04,6.20
2015,01,26,08,05,6.40
2015,01,26,08,06,6.60
2015,01,26,08,07,6.70
2015,01,26,08,08,6.80
2015,01,26,08,09,6.80
2015,01,26,08,10,6.80
2015,01,26,08,11,6.80
2015,01,26,08,12,6.80
2015,01,26,08,13,6.90
2015,01,26,08,14,6.90
2015,01,26,08,15,6.90
2015,01,26,08,16,7.00
2015,01,26,08,17,7.00
2015,01,26,08,18,7.00
2015,01,26,08,19,7.00
2015,01,26,08,20,7.00
2015,01,26,08,21,7.10
2015,01,26,08,22,7.10
2015,01,26,08,23,7.10
2015,01,26,08,24,7.10
2015,01,26,08,25,7.10
2015,01,26,08,26,7.10
2015,01,26,08,27,7.10
2015,01,26,08,28,7.10
2015,01,26,08,29,7.10
2015,01,26,08,30,7.10
2015,01,26,08,31,7.10
2015,01,26,08,32,7.10
2015,01,26,08,33,7.20
2015,01,26,08,34,7.20
2015,01,26,08,35,7.20
2015,01,26,08,36,7.20
2015,01,26,08,37,7.20
2015,01,26,08,38,7.30
2015,01,26,08,39,7.30
2015,01,26,08,40,7.30
2015,01,26,08,41,7.30
2015,01,26,08,42,7.30
2015,01,26,08,43,7.30
2015,01,26,08,44,7.30
2015,01,26,08,45,7.30
2015,01,26,08,46,7.30
2015,01,26,08,47,7.30
2015,01,26,08,48,7.40
2015,01,26,08,49,7.40
2015,01,26,08,50,7.40
2015,01,26,08,51,7.40
2015,01,26,08,52,7.40
2015,01,26,08,53,7.50
2015,01,26,08,54,7.50
2015,01,26,08,55,7.50
2015,01,26,08,56,7.50
2015,01,26,08,57,7.50
2015,01,26,08,58,7.50
2015,01,26,08,59,7.50
2015,01,26,09,00,7.60
2015,01,26,09,01,7.60
2015,01,26,09,02,7.60
2015,01,26,09,03,7.70
2015,01,26,09,04,7.70
2015,01,26,09,05,7.70
2015,01,26,09,06,7.80
2015,01,26,09,07,7.80
2015,01,26,09,08,7.80
2015,01,26,09,09,7.80
2015,01,26,09,10,7.80
2015,01,26,09,11,7.80
2015,01,26,09,12,7.80
2015,01,26,09,13,7.80
2015,01,26,09,14,7.80
2015,01,26,09,15,7.80
2015,01,26,09,16,7.80
2015,01,26,09,17,7.80
2015,01,26,09,18,7.80
2015,01,26,09,19,7.80
2015,01,26,09,20,7.80
2015,01,26,09,21,7.80
2015,01,26,09,22,7.80
2015,01,26,09,23,7.80
2015,01,26,09,24,7.80
2015,01,26,09,25,7.80
2015,01,26,09,26,7.80
2015,01,26,09,27,7.80
2015,01,26,09,28,7.80
2015,01,26,09,29,7.80
2015,01,26,09,30,7.80
2015,01,26,09,31,7.80
2015,01,26,09,32,7.80
2015,01,26,09,33,7.80
2015,01,26,09,34,7.80
2015,01,26,09,35,7.80
2015,01,26,09,36,7.80
2015,01,26,09,37,7.80
2015,01,26,09,38,7.80
2015,01,26,09,39,7.80
2015,01,26,09,40,7.80
2015,01,26,09,41,7.80
2015,01,26,09,42,7.80
2015,01,26,09,43,7.80
2015,01,26,09,44,7.80
2015,01,26,09,45,7.80
2015,01,26,09,46,7.80
2015,01,26,09,47,7.90
2015,01,26,09,48,7.80
2015,01,26,09,49,7.80
2015,01,26,09,50,7.80
2015,01,26,09,51,7.80
2015,01,26,09,52,7.80
2015,01,26,09,53,7.80
2015,01,26,09,54,7.80
2015,01,26,09,55,7.80
2015,01,26,09,56,7.80
2015,01,26,09,57,7.80
2015,01,26,09,58,7.80
2015,01,26,09,59,7.80
2015,01,26,10,00,7.80
2015,01,26,10,01,7.80
2015,01,26,10,02,7.80
2015,01,26,10,03,7.80
2015,01,26,10,04,7.80
2015,01,26,10,05,7.80
2015,01,26,10,06,7.90
2015,01,26,10,07,7.90
2015,01,26,10,08,7.80
2015,01,26,10,09,7.80
2015,01,26,10,10,7.80
2015,01,26,10,11,7.90
2015,01,26,10,12,7.90
2015,01,26,10,13,7.90
2015,01,26,10,14,7.90
2015,01,26,10,15,7.90
2015,01,26,10,16,7.90
2015,01,26,10,17,7.90
2015,01,26,10,18,7.90
2015,01,26,10,19,7.90
2015,01,26,10,20,7.90
2015,01,26,10,21,7.90
2015,01,26,10,22,7.90
2015,01,26,10,23,7.90
2015,01,26,10,24,7.90
2015,01,26,10,25,7.90
2015,01,26,10,26,7.90
2015,01,26,10,27,7.90
2015,01,26,10,28,7.90
2015,01,26,10,29,7.90
2015,01,26,10,30,7.90
2015,01,26,10,31,7.90
2015,01,26,10,32,7.90
2015,01,26,10,33,7.80
2015,01,26,10,34,7.80
2015,01,26,10,35,7.90
2015,01,26,10,36,7.90
2015,01,26,10,37,7.90
2015,01,26,10,38,7.90
2015,01,26,10,39,7.90
2015,01,26,10,40,7.90
2015,01,26,10,41,7.90
2015,01,26,10,42,7.90
2015,01,26,10,43,7.90
2015,01,26,10,44,7.90
2015,01,26,10,45,7.90
2015,01,26,10,46,7.90
2015,01,26,10,47,8.00
2015,01,26,10,48,8.00
2015,01,26,10,49,8.00
2015,01,26,10,50,8.10
2015,01,26,10,51,8.10
2015,01,26,10,52,8.10
2015,01,26,10,53,8.10
2015,01,26,10,54,8.10
2015,01,26,10,55,8.10
2015,01,26,10,56,8.10
2015,01,26,10,57,8.10
2015,01,26,10,58,8.10
2015,01,26,10,59,8.10
2015,01,26,11,00,8.10
2015,01,26,11,01,8.10
2015,01,26,11,02,8.10
2015,01,26,11,03,8.10
2015,01,26,11,04,8.10
2015,01,26,11,05,8.00
2015,01,26,11,06,8.00
2015,01,26,11,07,8.00
2015,01,26,11,08,8.00
2015,01,26,11,09,8.00
2015,01,26,11,10,8.00
2015,01,26,11,11,8.00
2015,01,26,11,12,8.00
2015,01,26,11,13,8.00
2015,01,26,11,14,8.00
2015,01,26,11,15,8.00
2015,01,26,11,16,8.10
2015,01,26,11,17,8.10
2015,01,26,11,18,8.10
2015,01,26,11,19,8.10
2015,01,26,11,20,8.10
2015,01,26,11,21,8.10
2015,01,26,11,22,8.20
2015,01,26,11,23,8.20
2015,01,26,11,24,8.20
2015,01,26,11,25,8.20
2015,01,26,11,26,8.20
2015,01,26,11,27,8.20
2015,01,26,11,28,8.20
2015,01,26,11,29,8.20
2015,01,26,11,30,8.20
2015,01,26,11,31,8.20
2015,01,26,11,32,8.20
2015,01,26,11,33,8.20
2015,01,26,11,34,8.20
2015,01,26,11,35,8.10
2015,01,26,11,36,8.10
2015,01,26,11,37,8.10
2015,01,26,11,38,8.10
2015,01,26,11,39,8.10
2015,01,26,11,40,8.20
2015,01,26,11,41,8.20
2015,01,26,11,42,8.20
2015,01,26,11,43,8.20
2015,01,26,11,44,8.20
2015,01,26,11,45,8.20
2015,01,26,11,46,8.20
2015,01,26,11,47,8.20
2015,01,26,11,48,8.10
2015,01,26,11,49,8.10
2015,01,26,11,50,8.10
2015,01,26,11,51,8.10
2015,01,26,11,52,8.10
2015,01,26,11,53,8.10
2015,01,26,11,54,8.10
2015,01,26,11,55,8.10
2015,01,26,11,56,8.10
2015,01,26,11,57,8.10
2015,01,26,11,58,8.10
2015,01,26,11,59,8.10
2015,01,26,12,00,8.10
2015,01,26,12,01,8.10
2015,01,26,12,02,8.10
2015,01,26,12,03,8.10
2015,01,26,12,04,8.10
2015,01,26,12,05,8.10
2015,01,26,12,06,8.10
2015,01,26,12,07,8.10
2015,01,26,12,08,8.00
2015,01,26,12,09,8.00
2015,01,26,12,10,8.00
2015,01,26,12,11,8.00
2015,01,26,12,12,8.00
2015,01,26,12,13,7.90
2015,01,26,12,14,7.90
2015,01,26,12,15,7.90
2015,01,26,12,16,7.90
2015,01,26,12,17,7.90
2015,01,26,12,18,7.90
2015,01,26,12,19,7.90
2015,01,26,12,20,7.90
2015,01,26,12,21,7.90
2015,01,26,12,22,7.90
2015,01,26,12,23,7.90
2015,01,26,12,24,7.90
2015,01,26,12,25,7.90
2015,01,26,12,26,7.80
2015,01,26,12,27,7.80
2015,01,26,12,28,7.80
2015,01,26,12,29,7.80
2015,01,26,12,30,7.90
2015,01,26,12,31,7.90
2015,01,26,12,32,7.90
2015,01,26,12,33,7.90
2015,01,26,12,34,7.90
2015,01,26,12,35,7.90
2015,01,26,12,36,7.90
2015,01,26,12,37,7.90
2015,01,26,12,38,7.90
2015,01,26,12,39,7.90
2015,01,26,12,40,7.90
2015,01,26,12,41,7.90
2015,01,26,12,42,7.90
2015,01,26,12,43,8.00
2015,01,26,12,44,8.00
2015,01,26,12,45,8.00
2015,01,26,12,46,8.10
2015,01,26,12,47,8.10
2015,01,26,12,48,8.20
2015,01,26,12,49,8.20
2015,01,26,12,50,8.20
2015,01,26,12,51,8.20
2015,01,26,12,52,8.20
2015,01,26,12,53,8.20
2015,01,26,12,54,8.20
2015,01,26,12,55,8.20
2015,01,26,12,56,8.20
2015,01,26,12,57,8.20
2015,01,26,12,58,8.20
2015,01,26,12,59,8.20
2015,01,26,13,00,8.20
2015,01,26,13,01,8.20
2015,01,26,13,02,8.20
2015,01,26,13,03,8.20
2015,01,26,13,04,8.20
2015,01,26,13,05,8.20
2015,01,26,13,06,8.20
2015,01,26,13,07,8.20
2015,01,26,13,08,8.20
2015,01,26,13,09,8.20
2015,01,26,13,10,8.20
2015,01,26,13,11,8.20
2015,01,26,13,12,8.20
2015,01,26,13,13,8.10
2015,01,26,13,14,8.10
2015,01,26,13,15,8.10
2015,01,26,13,16,8.10
2015,01,26,13,17,8.20
2015,01,26,13,18,8.20
2015,01,26,13,19,8.20
2015,01,26,13,20,8.20
2015,01,26,13,21,8.20
2015,01,26,13,22,8.20
2015,01,26,13,23,8.10
2015,01,26,13,24,8.10
2015,01,26,13,25,8.20
2015,01,26,13,26,8.20
2015,01,26,13,27,8.20
2015,01,26,13,28,8.20
2015,01,26,13,29,8.20
2015,01,26,13,30,8.20
2015,01,26,13,31,8.20
2015,01,26,13,32,8.20
2015,01,26,13,33,8.20
2015,01,26,13,34,8.10
2015,01,26,13,35,8.10
2015,01,26,13,36,8.10
2015,01,26,13,37,8.10
2015,01,26,13,38,8.20
2015,01,26,13,39,8.20
2015,01,26,13,40,8.20
2015,01,26,13,41,8.20
2015,01,26,13,42,8.20
2015,01,26,13,43,8.20
2015,01,26,13,44,8.20
2015,01,26,13,45,8.20
2015,01,26,13,46,8.30
2015,01,26,13,47,8.30
2015,01,26,13,48,8.20
2015,01,26,13,49,8.20
2015,01,26,13,50,8.20
2015,01,26,13,51,8.20
2015,01,26,13,52,8.20
2015,01,26,13,53,8.20
2015,01,26,13,54,8.20
2015,01,26,13,55,8.30
2015,01,26,13,56,8.20
2015,01,26,13,57,8.20
2015,01,26,13,58,8.20
2015,01,26,13,59,8.20
2015,01,26,14,00,8.20
2015,01,26,14,01,8.20
2015,01,26,14,02,8.20
2015,01,26,14,03,8.20
2015,01,26,14,04,8.20
2015,01,26,14,05,8.20
2015,01,26,14,06,8.20
2015,01,26,14,07,8.20
2015,01,26,14,08,8.20
2015,01,26,14,09,8.20
2015,01,26,14,10,8.20
2015,01,26,14,11,8.20
2015,01,26,14,12,8.20
2015,01,26,14,13,8.20
2015,01,26,14,14,8.20
2015,01,26,14,15,8.20
2015,01,26,14,16,8.20
2015,01,26,14,17,8.20
2015,01,26,14,18,8.20
2015,01,26,14,19,8.20
2015,01,26,14,20,8.20
2015,01,26,14,21,8.20
2015,01,26,14,22,8.20
2015,01,26,14,23,8.20
2015,01,26,14,24,8.20
2015,01,26,14,25,8.20
2015,01,26,14,26,8.30
2015,01,26,14,27,8.30
2015,01,26,14,28,8.40
2015,01,26,14,29,8.50
2015,01,26,14,30,8.50
2015,01,26,14,31,8.60
2015,01,26,14,32,8.50
2015,01,26,14,33,8.50
2015,01,26,14,34,8.50
2015,01,26,14,35,8.50
2015,01,26,14,36,8.40
2015,01,26,14,37,8.40
2015,01,26,14,38,8.40
2015,01,26,14,39,8.40
2015,01,26,14,40,8.40
2015,01,26,14,41,8.30
2015,01,26,14,42,8.30
2015,01,26,14,43,8.20
2015,01,26,14,44,8.30
2015,01,26,14,45,8.30
2015,01,26,14,46,8.30
2015,01,26,14,47,8.40
2015,01,26,14,48,8.40
2015,01,26,14,49,8.40
2015,01,26,14,50,8.40
2015,01,26,14,51,8.40
2015,01,26,14,52,8.40
2015,01,26,14,53,8.50
2015,01,26,14,54,8.50
2015,01,26,14,55,8.60
2015,01,26,14,56,8.60
2015,01,26,14,57,8.60
2015,01,26,14,58,8.60
2015,01,26,14,59,8.70
2015,01,26,15,00,8.70
2015,01,26,15,01,8.70
2015,01,26,15,02,8.80
2015,01,26,15,03,8.90
2015,01,26,15,04,9.00
2015,01,26,15,05,9.00
2015,01,26,15,06,9.10
2015,01,26,15,07,9.10
2015,01,26,15,08,9.10
2015,01,26,15,09,9.00
2015,01,26,15,10,9.00
2015,01,26,15,11,9.00
2015,01,26,15,12,9.00
2015,01,26,15,13,9.00
2015,01,26,15,14,9.00
2015,01,26,15,15,9.00
2015,01,26,15,16,9.00
2015,01,26,15,17,9.00
2015,01,26,15,18,9.10
2015,01,26,15,19,9.10
2015,01,26,15,20,9.10
2015,01,26,15,21,9.10
2015,01,26,15,22,9.10
2015,01,26,15,23,9.10
2015,01,26,15,24,9.00
2015,01,26,15,25,9.00
2015,01,26,15,26,9.00
2015,01,26,15,27,9.00
2015,01,26,15,28,9.10
2015,01,26,15,29,9.10
2015,01,26,15,30,9.10
2015,01,26,15,31,9.10
2015,01,26,15,32,9.00
2015,01,26,15,33,8.90
2015,01,26,15,34,8.90
2015,01,26,15,35,8.80
2015,01,26,15,36,8.70
2015,01,26,15,37,8.70
2015,01,26,15,38,8.60
2015,01,26,15,39,8.60
2015,01,26,15,40,8.50
2015,01,26,15,41,8.50
2015,01,26,15,42,8.40
2015,01,26,15,43,8.40
2015,01,26,15,44,8.40
2015,01,26,15,45,8.40
2015,01,26,15,46,8.40
2015,01,26,15,47,8.40
2015,01,26,15,48,8.40
2015,01,26,15,49,8.40
2015,01,26,15,50,8.40
2015,01,26,15,51,8.40
2015,01,26,15,52,8.30
2015,01,26,15,53,8.30
2015,01,26,15,54,8.30
2015,01,26,15,55,8.30
2015,01,26,15,56,8.30
2015,01,26,15,57,8.30
2015,01,26,15,58,8.30
2015,01,26,15,59,8.30
2015,01,26,16,00,8.30
2015,01,26,16,01,8.30
2015,01,26,16,02,8.40
2015,01,26,16,03,8.40
2015,01,26,16,04,8.40
2015,01,26,16,05,8.40
2015,01,26,16,06,8.40
2015,01,26,16,07,8.50
2015,01,26,16,08,8.50
2015,01,26,16,09,8.50
2015,01,26,16,10,8.50
2015,01,26,16,11,8.50
2015,01,26,16,12,8.50
2015,01,26,16,13,8.50
2015,01,26,16,14,8.50
2015,01,26,16,15,8.50
2015,01,26,16,16,8.50
2015,01,26,16,17,8.50
2015,01,26,16,18,8.50
2015,01,26,16,19,8.50
2015,01,26,16,20,8.50
2015,01,26,16,21,8.50
2015,01,26,16,22,8.50
2015,01,26,16,23,8.50
2015,01,26,16,24,8.50
2015,01,26,16,25,8.50
2015,01,26,16,26,8.50
2015,01,26,16,27,8.60
2015,01,26,16,28,8.60
2015,01,26,16,29,8.60
2015,01,26,16,30,8.50
2015,01,26,16,31,8.50
2015,01,26,16,32,8.50
2015,01,26,16,33,8.50
2015,01,26,16,34,8.50
2015,01,26,16,35,8.50
2015,01,26,16,36,8.50
2015,01,26,16,37,8.50
2015,01,26,16,38,8.50
2015,01,26,16,39,8.50
2015,01,26,16,40,8.40
2015,01,26,16,41,8.40
2015,01,26,16,42,8.40
2015,01,26,16,43,8.40
2015,01,26,16,44,8.40
2015,01,26,16,45,8.30
2015,01,26,16,46,8.30
2015,01,26,16,47,8.30
2015,01,26,16,48,8.30
2015,01,26,16,49,8.30
2015,01,26,16,50,8.30
2015,01,26,16,51,8.30
2015,01,26,16,52,8.30
2015,01,26,16,53,8.30
2015,01,26,16,54,8.30
2015,01,26,16,55,8.30
2015,01,26,16,56,8.30
2015,01,26,16,57,8.30
2015,01,26,16,58,8.30
2015,01,26,16,59,8.30
2015,01,26,17,00,8.30
2015,01,26,17,01,8.30
2015,01,26,17,02,8.30
2015,01,26,17,03,8.20
2015,01,26,17,04,8.20
2015,01,26,17,05,8.20
2015,01,26,17,06,8.20
2015,01,26,17,07,8.20
2015,01,26,17,08,8.20
2015,01,26,17,09,8.20
2015,01,26,17,10,8.20
2015,01,26,17,11,8.20
2015,01,26,17,12,8.20
2015,01,26,17,13,8.20
2015,01,26,17,14,8.10
2015,01,26,17,15,8.10
2015,01,26,17,16,8.10
2015,01,26,17,17,8.10
2015,01,26,17,18,8.10
2015,01,26,17,19,8.10
2015,01,26,17,20,8.10
2015,01,26,17,21,8.10
2015,01,26,17,22,8.10
2015,01,26,17,23,8.10
2015,01,26,17,24,8.10
2015,01,26,17,25,8.10
2015,01,26,17,26,8.10
2015,01,26,17,27,8.10
2015,01,26,17,28,8.10
2015,01,26,17,29,8.10
2015,01,26,17,30,8.10
2015,01,26,17,31,8.10
2015,01,26,17,32,8.10
2015,01,26,17,33,8.10
2015,01,26,17,34,8.10
2015,01,26,17,35,8.10
2015,01,26,17,36,8.10
2015,01,26,17,37,8.10
2015,01,26,17,38,8.10
2015,01,26,17,39,8.10
2015,01,26,17,40,8.10
2015,01,26,17,41,8.10
2015,01,26,17,42,8.10
2015,01,26,17,43,8.10
2015,01,26,17,44,8.10
2015,01,26,17,45,8.10
2015,01,26,17,46,8.10
2015,01,26,17,47,8.10
2015,01,26,17,48,8.10
2015,01,26,17,49,8.10
2015,01,26,17,50,8.10
2015,01,26,17,51,8.10
2015,01,26,17,52,8.00
2015,01,26,17,53,8.00
2015,01,26,17,54,8.00
2015,01,26,17,55,8.00
2015,01,26,17,56,8.00
2015,01,26,17,57,8.00
2015,01,26,17,58,8.00
2015,01,26,17,59,8.00
2015,01,26,18,00,8.00
2015,01,26,18,01,8.00
2015,01,26,18,02,8.00
2015,01,26,18,03,8.00
2015,01,26,18,04,8.00
2015,01,26,18,05,8.00
2015,01,26,18,06,8.00
2015,01,26,18,07,8.00
2015,01,26,18,08,8.00
2015,01,26,18,09,7.90
2015,01,26,18,10,7.90
2015,01,26,18,11,7.90
2015,01,26,18,12,7.90
2015,01,26,18,13,7.90
2015,01,26,18,14,7.90
2015,01,26,18,15,7.90
2015,01,26,18,16,7.90
2015,01,26,18,17,7.90
2015,01,26,18,18,7.90
2015,01,26,18,19,7.90
2015,01,26,18,20,7.90
2015,01,26,18,21,7.80
2015,01,26,18,22,7.80
2015,01,26,18,23,7.80
2015,01,26,18,24,7.80
2015,01,26,18,25,7.80
2015,01,26,18,26,7.80
2015,01,26,18,27,7.80
2015,01,26,18,28,7.80
2015,01,26,18,29,7.80
2015,01,26,18,30,7.80
2015,01,26,18,31,7.80
2015,01,26,18,32,7.80
2015,01,26,18,33,7.80
2015,01,26,18,34,7.80
2015,01,26,18,35,7.80
2015,01,26,18,36,7.80
2015,01,26,18,37,7.80
2015,01,26,18,38,7.80
2015,01,26,18,39,7.80
2015,01,26,18,40,7.80
2015,01,26,18,41,7.80
2015,01,26,18,42,7.80
2015,01,26,18,43,7.80
2015,01,26,18,44,7.80
2015,01,26,18,45,7.80
2015,01,26,18,46,7.80
2015,01,26,18,47,7.80
2015,01,26,18,48,7.80
2015,01,26,18,49,7.80
2015,01,26,18,50,7.80
2015,01,26,18,51,7.80
2015,01,26,18,52,7.80
2015,01,26,18,53,7.80
2015,01,26,18,54,7.80
2015,01,26,18,55,7.80
2015,01,26,18,56,7.80
2015,01,26,18,57,7.80
2015,01,26,18,58,7.80
2015,01,26,18,59,7.70
2015,01,26,19,00,7.80
2015,01,26,19,01,7.80
2015,01,26,19,02,7.80
2015,01,26,19,03,7.80
2015,01,26,19,04,7.80
2015,01,26,19,05,7.80
2015,01,26,19,06,7.80
2015,01,26,19,07,7.80
2015,01,26,19,08,7.80
2015,01,26,19,09,7.80
2015,01,26,19,10,7.80
2015,01,26,19,11,7.80
2015,01,26,19,12,7.80
2015,01,26,19,13,7.80
2015,01,26,19,14,7.80
2015,01,26,19,15,7.80
2015,01,26,19,16,7.80
2015,01,26,19,17,7.80
2015,01,26,19,18,7.80
2015,01,26,19,19,7.80
2015,01,26,19,20,7.80
2015,01,26,19,21,7.80
2015,01,26,19,22,7.80
2015,01,26,19,23,7.80
2015,01,26,19,24,7.80
2015,01,26,19,25,7.80
2015,01,26,19,26,7.80
2015,01,26,19,27,7.80
2015,01,26,19,28,7.80
2015,01,26,19,29,7.80
2015,01,26,19,30,7.80
2015,01,26,19,31,7.80
2015,01,26,19,32,7.80
2015,01,26,19,33,7.80
2015,01,26,19,34,7.90
2015,01,26,19,35,7.90
2015,01,26,19,36,7.90
2015,01,26,19,37,7.90
2015,01,26,19,38,7.90
2015,01,26,19,39,7.90
2015,01,26,19,40,7.90
2015,01,26,19,41,7.90
2015,01,26,19,42,7.90
2015,01,26,19,43,7.90
2015,01,26,19,44,7.90
2015,01,26,19,45,7.90
2015,01,26,19,46,7.90
2015,01,26,19,47,7.90
2015,01,26,19,48,7.90
2015,01,26,19,49,7.90
2015,01,26,19,50,7.90
2015,01,26,19,51,7.90
2015,01,26,19,52,7.90
2015,01,26,19,53,7.90
2015,01,26,19,54,7.90
2015,01,26,19,55,7.90
2015,01,26,19,56,7.90
2015,01,26,19,57,7.90
2015,01,26,19,58,7.90
2015,01,26,19,59,7.90
2015,01,26,20,00,7.90
2015,01,26,20,01,7.90
2015,01,26,20,02,7.90
2015,01,26,20,03,7.90
2015,01,26,20,04,7.90
2015,01,26,20,05,7.90
2015,01,26,20,06,7.90
2015,01,26,20,07,7.90
2015,01,26,20,08,7.90
2015,01,26,20,09,7.90
2015,01,26,20,10,7.90
2015,01,26,20,11,7.90
2015,01,26,20,12,7.90
2015,01,26,20,13,7.80
2015,01,26,20,14,7.80
2015,01,26,20,15,7.80
2015,01,26,20,16,7.80
2015,01,26,20,17,7.80
2015,01,26,20,18,7.80
2015,01,26,20,19,7.80
2015,01,26,20,20,7.80
2015,01,26,20,21,7.80
2015,01,26,20,22,7.80
2015,01,26,20,23,7.80
2015,01,26,20,24,7.80
2015,01,26,20,25,7.80
2015,01,26,20,26,7.80
2015,01,26,20,27,7.80
2015,01,26,20,28,7.80
2015,01,26,20,29,7.70
2015,01,26,20,30,7.70
2015,01,26,20,31,7.70
2015,01,26,20,32,7.70
2015,01,26,20,33,7.70
2015,01,26,20,34,7.70
2015,01,26,20,35,7.70
2015,01,26,20,36,7.70
2015,01,26,20,37,7.60
2015,01,26,20,38,7.60
2015,01,26,20,39,7.60
2015,01,26,20,40,7.60
2015,01,26,20,41,7.60
2015,01,26,20,42,7.60
2015,01,26,20,43,7.50
2015,01,26,20,44,7.50
2015,01,26,20,45,7.50
2015,01,26,20,46,7.40
2015,01,26,20,47,7.40
2015,01,26,20,48,7.40
2015,01,26,20,49,7.30
2015,01,26,20,50,7.30
2015,01,26,20,51,7.30
2015,01,26,20,52,7.30
2015,01,26,20,53,7.30
2015,01,26,20,54,7.30
2015,01,26,20,55,7.30
2015,01,26,20,56,7.30
2015,01,26,20,57,7.30
2015,01,26,20,58,7.30
2015,01,26,20,59,7.30
2015,01,26,21,00,7.20
2015,01,26,21,01,7.20
2015,01,26,21,02,7.20
2015,01,26,21,03,7.20
2015,01,26,21,04,7.20
2015,01,26,21,05,7.10
2015,01,26,21,06,7.00
2015,01,26,21,07,6.90
2015,01,26,21,08,6.80
2015,01,26,21,09,6.80
2015,01,26,21,10,6.80
2015,01,26,21,11,6.80
2015,01,26,21,12,6.80
2015,01,26,21,13,6.80
2015,01,26,21,14,6.80
2015,01,26,21,15,6.80
2015,01,26,21,16,6.90
2015,01,26,21,17,6.90
2015,01,26,21,18,6.90
2015,01,26,21,19,6.90
2015,01,26,21,20,6.90
2015,01,26,21,21,6.90
2015,01,26,21,22,6.90
2015,01,26,21,23,6.90
2015,01,26,21,24,6.90
2015,01,26,21,25,6.90
2015,01,26,21,26,6.90
2015,01,26,21,27,6.90
2015,01,26,21,28,6.90
2015,01,26,21,29,7.00
2015,01,26,21,30,7.00
2015,01,26,21,31,7.00
2015,01,26,21,32,7.00
2015,01,26,21,33,7.00
2015,01,26,21,34,7.00
2015,01,26,21,35,7.00
2015,01,26,21,36,7.00
2015,01,26,21,37,7.00
2015,01,26,21,38,7.10
2015,01,26,21,39,7.10
2015,01,26,21,40,7.10
2015,01,26,21,41,7.10
2015,01,26,21,42,7.10
2015,01,26,21,43,7.10
2015,01,26,21,44,7.10
2015,01,26,21,45,7.20
2015,01,26,21,46,7.20
2015,01,26,21,47,7.20
2015,01,26,21,48,7.10
2015,01,26,21,49,7.10
2015,01,26,21,50,7.10
2015,01,26,21,51,7.00
2015,01,26,21,52,7.00
2015,01,26,21,53,7.00
2015,01,26,21,54,7.10
2015,01,26,21,55,7.10
2015,01,26,21,56,7.10
2015,01,26,21,57,7.10
2015,01,26,21,58,7.20
2015,01,26,21,59,7.20
2015,01,26,22,00,7.20
2015,01,26,22,01,7.20
2015,01,26,22,02,7.20
2015,01,26,22,03,7.20
2015,01,26,22,04,7.20
2015,01,26,22,05,7.20
2015,01,26,22,06,7.20
2015,01,26,22,07,7.20
2015,01,26,22,08,7.20
2015,01,26,22,09,7.10
2015,01,26,22,10,7.10
2015,01,26,22,11,7.10
2015,01,26,22,12,7.10
2015,01,26,22,13,7.10
2015,01,26,22,14,7.10
2015,01,26,22,15,7.10
2015,01,26,22,16,7.10
2015,01,26,22,17,7.10
2015,01,26,22,18,7.10
2015,01,26,22,19,7.10
2015,01,26,22,20,7.00
2015,01,26,22,21,7.00
2015,01,26,22,22,7.00
2015,01,26,22,23,7.00
2015,01,26,22,24,7.00
2015,01,26,22,25,7.00
2015,01,26,22,26,7.00
2015,01,26,22,27,7.00
2015,01,26,22,28,7.00
2015,01,26,22,29,7.00
2015,01,26,22,30,6.90
2015,01,26,22,31,6.90
2015,01,26,22,32,6.90
2015,01,26,22,33,6.90
2015,01,26,22,34,6.80
2015,01,26,22,35,6.80
2015,01,26,22,36,6.80
2015,01,26,22,37,6.80
2015,01,26,22,38,6.80
2015,01,26,22,39,6.80
2015,01,26,22,40,6.80
2015,01,26,22,41,6.80
2015,01,26,22,42,6.80
2015,01,26,22,43,6.80
2015,01,26,22,44,6.70
2015,01,26,22,45,6.70
2015,01,26,22,46,6.70
2015,01,26,22,47,6.70
2015,01,26,22,48,6.70
2015,01,26,22,49,6.70
2015,01,26,22,50,6.70
2015,01,26,22,51,6.70
2015,01,26,22,52,6.70
2015,01,26,22,53,6.70
2015,01,26,22,54,6.70
2015,01,26,22,55,6.70
2015,01,26,22,56,6.70
2015,01,26,22,57,6.70
2015,01,26,22,58,6.70
2015,01,26,22,59,6.70
2015,01,26,23,00,6.70
2015,01,26,23,01,6.70
2015,01,26,23,02,6.70
2015,01,26,23,03,6.70
2015,01,26,23,04,6.70
2015,01,26,23,05,6.70
2015,01,26,23,06,6.70
2015,01,26,23,07,6.70
2015,01,26,23,08,6.80
2015,01,26,23,09,6.80
2015,01,26,23,10,6.80
2015,01,26,23,11,6.80
2015,01,26,23,12,6.80
2015,01,26,23,13,6.80
2015,01,26,23,14,6.80
2015,01,26,23,15,6.80
2015,01,26,23,16,6.90
2015,01,26,23,17,6.90
2015,01,26,23,18,6.90
2015,01,26,23,19,6.90
2015,01,26,23,20,6.90
2015,01,26,23,21,6.90
2015,01,26,23,22,6.90
2015,01,26,23,23,6.90
2015,01,26,23,24,6.90
2015,01,26,23,25,6.90
2015,01,26,23,26,6.90
2015,01,26,23,27,6.90
2015,01,26,23,28,6.90
2015,01,26,23,29,6.90
2015,01,26,23,30,6.90
2015,01,26,23,31,6.90
2015,01,26,23,32,6.90
2015,01,26,23,33,6.90
2015,01,26,23,34,6.90
2015,01,26,23,35,6.90
2015,01,26,23,36,6.90
2015,01,26,23,37,6.90
2015,01,26,23,38,6.90
2015,01,26,23,39,6.80
2015,01,26,23,40,6.80
2015,01,26,23,41,6.80
2015,01,26,23,42,6.80
2015,01,26,23,43,6.80
2015,01,26,23,44,6.80
2015,01,26,23,45,6.80
2015,01,26,23,46,6.80
2015,01,26,23,47,6.80
2015,01,26,23,48,6.80
2015,01,26,23,49,6.80
2015,01,26,23,50,6.80
2015,01,26,23,51,6.80
2015,01,26,23,52,6.80
2015,01,26,23,53,6.80
2015,01,26,23,54,6.70
2015,01,26,23,55,6.70
2015,01,26,23,56,6.70
2015,01,26,23,57,6.70
2015,01,26,23,58,6.70
2015,01,26,23,59,6.70
